Погода в Тобольске

Хотите узнать прогноз погоды в Тобольске? Тогда Вам сюда: Погода в Тобольске

Поиск расширенной информации на нашем сайте:

Полезная информация:

Новости сайта



02.01.2020
Опубликован Долгосрочный прогноз погоды по городам России и ближнего зарубежья на январь 2020 года.
Карты: Прогноз на январь и февраль 2020 года, Сравнение прогнозируемой аномалии приземной температуры воздуха на январь 2020 года по разным моделям.




Погода в Тобольске - сегодня

Время (UTC), дата Ветер
(°,м/с) 
Видим.   Явления Облачность Т
(°С)
Тd
(°С)
f(%) Тe
(°С)
Pmin
(гПа)
dP
(гПа)
Po
(мм)
O2
(г/м3)
Тmin Tmax R s Состояние
почвы
00 19.01.20 270 (З) 10 км  {снег}  10/6 300 м средняя 
[Frnb|Ac As]
-13.1 -15.3 84 -15  1015.7  1.8  757  322           
03 19.01.20 300 (СЗ) 10 км    10/5 300 м средняя 
[Frnb|Ac As]
-12.5 -15.8 76 -16  1017.9  2.2  758  322  -15    0.7  29  равномерный
сухой снег
100% 
06 19.01.20 320 (СЗ) 4{10}  20000 м  позёмок  ясно 
-13.8 -18.6 67 -18  1020.7  2.8  761  324           
09 19.01.20 310 (СЗ) 20000 м    ясно 
-14.3 -20 62 -16  1022.6  1.9  762  326           
12 19.01.20 300 (СЗ) 20000 м    ясно 
-20.2 -23.3 76 -20  1024.9  2.2  764  334           
15 19.01.20 тихо ()   10 км    ясно 
-25.8 -28.5 78 -26  1025.9  0.8  764  342    -12.2       
18 19.01.20 тихо ()   10 км    ясно 
-29.5 -32.9 72 -30  1025.9  -0.2  764  347           
21 19.01.20 120 (ЮВ) 10 км    ясно 
-30.3 -33.9 71 -31  1025.5  -0.3  764  348           
00 20.01.20 120 (ЮВ) 10 км    ясно 
-30.9 -34.6 70 -32  1024.6  -0.9  763  349           
03 20.01.20 110 (В) 10 км  [диам. изморози 2 мм]  6/0 верхняя 
[Ci fib]
-29.7 -33.3 71 -30  1023.6  -1  762  347  -32.1      29  равномерный
сухой снег
100% 
06 20.01.20 130 (ЮВ) 20000 м  [диам. изморози 3 мм]  3/0 верхняя 
[Ci sp]
-25.9 -29.3 73 -26  1022.7  -0.8  762  341           
09 20.01.20 110 (В) 20000 м  [диам. изморози 0 мм]  3/0 верхняя 
[Ci sp]
-21.1 -24.3 75 -24  1020.7  -1.9  760  334           
12 20.01.20 110 (В) 20000 м    ясно 
-21.2 -24 78 -22  1019.9  -0.8  760  334           
15 20.01.20 100 (В) 10 км    ясно 
-21.5 -24.3 78 -24  1019.4  -0.5  759  334    -20       
18 20.01.20 120 (ЮВ) 10 км  [диам. изморози 1 мм]  ясно 
-25 -28.3 74 -26  1018.8  -0.7  759  338           
21 20.01.20 210 (ЮЗ) 10 км  [диам. изморози 2 мм]  ясно 
-27.9 -31.6 71 -29  1018.1  -0.7  758  342           
00 21.01.20 110 (В) 10 км  [диам. изморози 2 мм]  ясно 
-28.8 -32.5 70 -29  1017.4  -0.8  758  343           
03 21.01.20 130 (ЮВ) 10 км  [диам. изморози 2 мм]  ясно 
-24.7 -27.9 75 -28  1017  -0.2  758  337  -29.8      29  равномерный
сухой снег
100% 
06 21.01.20 110 (В) 10 км  слаб. снег [диам. изморози 2 мм]  10/0 средняя 
[As op]
-23.2 -26.3 76 -28  1016.9  -0.1  758  335  -25.1         
09 21.01.20 120 (ЮВ) 10 км  слаб. снег [диам. изморози 2 мм]  10/0 средняя 
[Ac As]
-20.3 -23.1 78 -25  1015.4  -1.4  757  331           
12 21.01.20 110 (В) 10 км  слаб. снег [диам. изморози 2 мм]  10/0 средняя 
[Ac As]
-19.5 -22.2 79 -24  1014.3  -1.1  756  330           
15 21.01.20 130 (ЮВ) 4000 м  слаб. снег  10/0 средняя 
[As op]
-17.2 -19.7 81 -20  1013.3  -0.9  755  326    -17.2  0.2     
18 21.01.20 140 (ЮВ) 4000 м  слаб. снег [диам. изморози 2 мм]  10/0 средняя 
[As op]
-17.4 -19.9 81 -22  1011.3  -2  754  326           
21 21.01.20 160 (Ю) 10 км  слаб. снег [диам. изморози 2 мм]  10/0 средняя 
[As op]
-18.1 -20.7 80 -22  1009  -2.3  752  326           
00 22.01.20 150 (ЮВ) 4000 м  слаб. снег [диам. изморози 4 мм]  10/0 средняя 
[Ac As]
-17.2 -19.7 81 -21  1006.4  -2.6  750  324           
Время (UTC), дата Ветер
(°,м/с) 
Видим.   Явления Облачность Т
(°С)
Тd
(°С)
f(%) Тe
(°С)
Pmin
(гПа)
dP
(гПа)
Po
(мм)
O2
(г/м3)
Тmin Tmax R s Состояние
почвы

Для получения пояснительной информации подведите курсор к названию столбца.

ПОГОДА в Тобольске - архив

Всё, что Вы хотите узнать о погоде в Тобольске - удобно и подробно!

Выберите нужную дату (начиная с 1 января 2019* года) и нажмите кнопку "Найти".
Будут отображены архивные сводки погоды по пункту Тобольск, начиная с указанной даты.


Отображать данные в формате CSV (для использования в таблицах Excel)


Внимание! Наш архив погоды предназначен исключительно для личного некоммерческого использования в познавательных целях. Если Вам необходимы официальные справки о состоянии погоды (для производственных, юридических, коммерческих и т.п. целей), обращайтесь в органы Росгидромета.

*Примечание: данная дата относится к архиву по метеостанциям СССР (Россия, СНГ, Балтия).
Архив по метеостанциям Зарубежной Европы и Азии (кроме Китая) хранится 10 дней, по другим регионам земного шара (Китай, Африка, Америка, Австралия, Океания) - 1 день.

Тобольск - район местоположения метеостанции


Название, широта, долгота, высота метеостанции:
Тобольск 58.2°ш. 68.2°д. 50 м над ур. моря [Российская Федерация]

Дополнительная информация

В oтличие oт бoльшинства пoгoдных сайтoв мы публикуем пoдрoбную метеoинфoрмацию в детальнoм прoфессиoнальнoм фoрмате.

Характеристики температуры и влажнoсти вoздуха измеряются на высoте 2 м в тени вдали oт зданий и деревьев.
Скoрoсть ветра измеряется на высoте 10 м (на урoвне рoста челoвека скoрoсть ветра ниже в 1.5-2 раза). Если метеoстанция нахoдится в гoрoде или в лесу, тo скoрoсть ветра занижена на 2-4 м/с пo сравнению с oткрытым местoм. Скoрoсть ветра над акватoриями крупных рек и oзёр, а также на вершинах хoлмoв на 2-5 м/с выше, чем в oбычных услoвиях.
Атмoсфернoе давление в разных тoчках местнoсти мoжет значительнo oтличаться oт давления на метеoстанции, в зависимoсти oт услoвий рельефа (при пoдъёме на 10 м давление пoнижается примернo на 1 мм рт.ст.).